Powrót do katalogu

SL-16 DEB

AktywnyLEO
NORAD 26074·DEBRIS·🇷🇺 Russia

Wystrzelony Feb 3, 2000 z Baikonur Cosmodrome

Loading…

Następne Przeloty (najbliższe 24 godziny)

TLE

ŚwieżeSource: Space-Track

Epoka: Sep 13, 2026, 23:25 UTC

1 26074U 00006D   26256.97631312  .00000047  00000-0  86050-4 0  9992
2 26074  70.9619  85.7555 0211647 128.8409 233.1793 13.70146786371003

Śledź SL-16 DEB w czasie rzeczywistym z AllMySat

Download on the App Store